| time (UTC) | temp F | wind direction | speed MPH | gust MPH | rain 1hr in | rain 24hr in | rain mn in | humidity % | barometer mb |
| 20260508023531 | 55 | 177 | 3.0 | 6.0 | 0.00 | 0.01 | 0.00 | 75 | 1012.2 |
| 20260508023049 | 55 | 185 | 2.0 | 5.0 | 0.00 | 0.01 | 0.00 | 75 | 1012.3 |
| 20260508022533 | 55 | 195 | 2.0 | 6.0 | 0.00 | 0.01 | 0.00 | 75 | 1012.3 |
| 20260508022032 | 55 | 195 | 3.0 | 7.0 | 0.00 | 0.01 | 0.00 | 74 | 1012.3 |
| 20260508021548 | 55 | 181 | 4.0 | 7.0 | 0.00 | 0.01 | 0.00 | 74 | 1012.3 |
| 20260508021033 | 55 | 202 | 3.0 | 7.0 | 0.00 | 0.01 | 0.00 | 74 | 1012.4 |
| 20260508020530 | 55 | 188 | 3.0 | 7.0 | 0.00 | 0.01 | 0.00 | 74 | 1012.4 |
| 20260508015531 | 55 | 181 | 3.0 | 8.0 | 0.00 | 0.01 | 0.00 | 75 | 1012.5 |
| 20260508015031 | 55 | 180 | 4.0 | 9.0 | 0.00 | 0.01 | 0.00 | 75 | 1012.5 |
| 20260508014546 | 55 | 169 | 4.0 | 9.0 | 0.00 | 0.01 | 0.00 | 75 | 1012.6 |
| 20260508014031 | 55 | 192 | 3.0 | 8.0 | 0.00 | 0.01 | 0.00 | 75 | 1012.7 |
| 20260508013531 | 55 | 180 | 4.0 | 8.0 | 0.00 | 0.01 | 0.00 | 74 | 1012.7 |
| 20260508013047 | 55 | 177 | 3.0 | 8.0 | 0.00 | 0.01 | 0.00 | 74 | 1012.8 |
| 20260508012531 | 55 | 195 | 5.0 | 8.0 | 0.00 | 0.01 | 0.00 | 74 | 1012.8 |
| 20260508012031 | 55 | 196 | 4.0 | 8.0 | 0.00 | 0.01 | 0.00 | 74 | 1012.8 |
| 20260508011545 | 55 | 191 | 5.0 | 8.0 | 0.00 | 0.01 | 0.00 | 75 | 1012.9 |
| 20260508011031 | 55 | 191 | 5.0 | 8.0 | 0.00 | 0.01 | 0.00 | 75 | 1012.9 |
| 20260508010531 | 55 | 198 | 4.0 | 8.0 | 0.00 | 0.01 | 0.00 | 74 | 1012.9 |
| 20260508010051 | 55 | 203 | 3.0 | 7.0 | 0.00 | 0.01 | 0.00 | 74 | 1013.0 |
| 20260508005533 | 55 | 193 | 3.0 | 8.0 | 0.00 | 0.01 | 0.00 | 74 | 1013.1 |
| 20260508005031 | 56 | 190 | 5.0 | 8.0 | 0.00 | 0.01 | 0.00 | 74 | 1013.1 |
| 20260508004549 | 56 | 185 | 5.0 | 10.0 | 0.00 | 0.01 | 0.00 | 74 | 1013.1 |
| 20260508004031 | 56 | 190 | 4.0 | 12.0 | 0.00 | 0.01 | 0.00 | 74 | 1013.1 |
| 20260508003530 | 56 | 196 | 7.0 | 12.0 | 0.00 | 0.01 | 0.00 | 74 | 1013.1 |
| 20260508003049 | 56 | 189 | 8.0 | 11.0 | 0.00 | 0.01 | 0.00 | 74 | 1013.0 |
| 20260508002531 | 56 | 194 | 7.0 | 10.0 | 0.00 | 0.01 | 0.00 | 73 | 1013.1 |
| 20260508002031 | 56 | 182 | 5.0 | 9.0 | 0.00 | 0.01 | 0.00 | 73 | 1013.2 |
| 20260508001547 | 56 | 184 | 6.0 | 9.0 | 0.00 | 0.01 | 0.00 | 72 | 1013.3 |
| 20260508001031 | 57 | 192 | 4.0 | 8.0 | 0.00 | 0.01 | 0.00 | 72 | 1013.3 |
| 20260508000533 | 57 | 178 | 5.0 | 8.0 | 0.00 | 0.01 | 0.00 | 71 | 1013.3 |
| 20260508000047 | 57 | 186 | 5.0 | 8.0 | 0.00 | 0.01 | 0.00 | 71 | 1013.4 |
| 20260507235531 | 57 | 184 | 6.0 | 9.0 | 0.00 | 0.01 | 0.00 | 71 | 1013.4 |
| 20260507235031 | 57 | 194 | 5.0 | 9.0 | 0.00 | 0.01 | 0.00 | 71 | 1013.4 |
| 20260507234544 | 57 | 196 | 5.0 | 9.0 | 0.00 | 0.01 | 0.00 | 71 | 1013.5 |
| 20260507234032 | 58 | 186 | 5.0 | 9.0 | 0.00 | 0.01 | 0.00 | 70 | 1013.6 |
| 20260507233532 | 58 | 183 | 4.0 | 7.0 | 0.00 | 0.01 | 0.00 | 71 | 1013.6 |
| 20260507233048 | 58 | 190 | 4.0 | 7.0 | 0.00 | 0.01 | 0.00 | 71 | 1013.6 |
| 20260507232531 | 58 | 192 | 5.0 | 7.0 | 0.00 | 0.01 | 0.00 | 71 | 1013.8 |
| 20260507232032 | 58 | 188 | 3.0 | 6.0 | 0.00 | 0.01 | 0.00 | 70 | 1013.8 |
| 20260507231548 | 58 | 171 | 3.0 | 6.0 | 0.00 | 0.01 | 0.00 | 70 | 1013.9 |
| 20260507231037 | 58 | 165 | 2.0 | 7.0 | 0.00 | 0.01 | 0.00 | 69 | 1013.9 |
| 20260507230532 | 59 | 186 | 3.0 | 7.0 | 0.00 | 0.01 | 0.00 | 69 | 1013.8 |
| 20260507230050 | 59 | 202 | 4.0 | 7.0 | 0.00 | 0.01 | 0.00 | 69 | 1014.0 |
| 20260507225531 | 59 | 186 | 3.0 | 6.0 | 0.00 | 0.01 | 0.00 | 69 | 1014.1 |
| 20260507225031 | 59 | 162 | 3.0 | 6.0 | 0.00 | 0.01 | 0.00 | 69 | 1014.2 |
| 20260507224548 | 59 | 186 | 2.0 | 5.0 | 0.00 | 0.01 | 0.00 | 69 | 1014.2 |
| 20260507224031 | 59 | 186 | 2.0 | 5.0 | 0.00 | 0.01 | 0.00 | 68 | 1014.2 |
| 20260507223532 | 59 | 5 | 1.0 | 6.0 | 0.00 | 0.01 | 0.00 | 68 | 1014.3 |
| 20260507223047 | 59 | 5 | 3.0 | 8.0 | 0.00 | 0.01 | 0.00 | 68 | 1014.3 |
| 20260507222530 | 59 | 199 | 5.0 | 9.0 | 0.00 | 0.01 | 0.00 | 68 | 1014.3 |
| 20260507222034 | 60 | 188 | 5.0 | 9.0 | 0.00 | 0.01 | 0.00 | 68 | 1014.1 |
| 20260507221542 | 60 | 186 | 5.0 | 9.0 | 0.00 | 0.01 | 0.00 | 67 | 1014.2 |
| 20260507221033 | 60 | 173 | 4.0 | 7.0 | 0.00 | 0.01 | 0.00 | 67 | 1014.1 |
| 20260507220530 | 60 | 184 | 4.0 | 7.0 | 0.00 | 0.01 | 0.00 | 67 | 1014.1 |
| 20260507220048 | 60 | 184 | 4.0 | 7.0 | 0.00 | 0.01 | 0.00 | 67 | 1014.0 |
| 20260507215531 | 60 | 179 | 4.0 | 7.0 | 0.00 | 0.01 | 0.01 | 68 | 1014.1 |
| 20260507215031 | 60 | 199 | 4.0 | 7.0 | 0.00 | 0.01 | 0.01 | 67 | 1014.1 |
| 20260507214549 | 60 | 191 | 4.0 | 7.0 | 0.00 | 0.01 | 0.01 | 67 | 1014.0 |
| 20260507214030 | 60 | 184 | 4.0 | 7.0 | 0.00 | 0.01 | 0.01 | 67 | 1014.0 |
| 20260507213534 | 61 | 194 | 3.0 | 6.0 | 0.00 | 0.01 | 0.01 | 67 | 1014.0 |
| 20260507213048 | 61 | 191 | 3.0 | 6.0 | 0.00 | 0.01 | 0.01 | 67 | 1014.0 |
| 20260507212530 | 61 | 194 | 3.0 | 7.0 | 0.00 | 0.01 | 0.01 | 67 | 1014.0 |
| 20260507212030 | 61 | 192 | 4.0 | 9.0 | 0.00 | 0.01 | 0.01 | 67 | 1014.0 |
| 20260507211552 | 61 | 188 | 5.0 | 9.0 | 0.00 | 0.01 | 0.01 | 66 | 1013.8 |
| 20260507211034 | 61 | 198 | 4.0 | 7.0 | 0.00 | 0.01 | 0.01 | 66 | 1013.9 |
| 20260507210530 | 61 | 198 | 4.0 | 8.0 | 0.00 | 0.01 | 0.01 | 66 | 1013.9 |
| 20260507210046 | 61 | 193 | 5.0 | 8.0 | 0.00 | 0.01 | 0.01 | 66 | 1014.0 |
| 20260507205531 | 62 | 201 | 4.0 | 8.0 | 0.00 | 0.01 | 0.01 | 65 | 1014.0 |
| 20260507205031 | 62 | 204 | 5.0 | 8.0 | 0.00 | 0.01 | 0.01 | 65 | 1014.0 |
| 20260507204551 | 62 | 193 | 5.0 | 8.0 | 0.00 | 0.01 | 0.01 | 65 | 1013.9 |
| 20260507204031 | 62 | 195 | 5.0 | 8.0 | 0.00 | 0.01 | 0.01 | 64 | 1013.9 |
| 20260507203531 | 62 | 186 | 4.0 | 8.0 | 0.00 | 0.01 | 0.01 | 64 | 1013.9 |
| 20260507203048 | 63 | 183 | 5.0 | 7.0 | 0.00 | 0.01 | 0.01 | 63 | 1013.9 |
| 20260507202530 | 63 | 178 | 5.0 | 7.0 | 0.00 | 0.01 | 0.01 | 63 | 1013.8 |
| 20260507202031 | 63 | 185 | 4.0 | 6.0 | 0.00 | 0.01 | 0.01 | 63 | 1013.7 |
| 20260507201547 | 63 | 189 | 4.0 | 6.0 | 0.00 | 0.01 | 0.01 | 62 | 1013.8 |
| 20260507201032 | 63 | 188 | 4.0 | 6.0 | 0.00 | 0.01 | 0.01 | 62 | 1013.9 |
| 20260507200532 | 63 | 204 | 4.0 | 6.0 | 0.00 | 0.01 | 0.01 | 62 | 1014.0 |
| 20260507200050 | 63 | 202 | 2.0 | 4.0 | 0.00 | 0.01 | 0.01 | 62 | 1014.0 |
| 20260507195531 | 63 | 196 | 2.0 | 5.0 | 0.00 | 0.01 | 0.01 | 63 | 1013.9 |
| 20260507195031 | 64 | 205 | 2.0 | 6.0 | 0.00 | 0.01 | 0.01 | 63 | 1013.9 |
| 20260507194547 | 64 | 360 | 3.0 | 6.0 | 0.00 | 0.01 | 0.01 | 63 | 1013.9 |
| 20260507194031 | 64 | 177 | 4.0 | 6.0 | 0.00 | 0.01 | 0.01 | 64 | 1013.9 |
| 20260507193534 | 64 | 161 | 4.0 | 6.0 | 0.00 | 0.01 | 0.01 | 63 | 1013.8 |
| 20260507193045 | 65 | 171 | 2.0 | 4.0 | 0.00 | 0.01 | 0.01 | 62 | 1013.8 |
| 20260507192531 | 65 | 171 | 3.0 | 5.0 | 0.00 | 0.01 | 0.01 | 63 | 1013.7 |
| 20260507192031 | 65 | 178 | 3.0 | 5.0 | 0.00 | 0.01 | 0.01 | 63 | 1013.6 |
| 20260507191552 | 65 | 196 | 1.0 | 6.0 | 0.00 | 0.01 | 0.01 | 63 | 1013.7 |
| 20260507191031 | 65 | 188 | 2.0 | 6.0 | 0.00 | 0.01 | 0.01 | 64 | 1013.6 |
| 20260507190531 | 64 | 164 | 4.0 | 6.0 | 0.00 | 0.01 | 0.01 | 64 | 1013.6 |
| 20260507190048 | 65 | 155 | 3.0 | 6.0 | 0.00 | 0.01 | 0.01 | 65 | 1013.5 |
| 20260507185532 | 65 | 153 | 3.0 | 5.0 | 0.00 | 0.01 | 0.01 | 64 | 1013.5 |
| 20260507185031 | 66 | 152 | 3.0 | 4.0 | 0.00 | 0.01 | 0.01 | 62 | 1013.5 |
| 20260507184547 | 67 | 148 | 2.0 | 3.0 | 0.00 | 0.01 | 0.01 | 60 | 1013.5 |
| 20260507184032 | 67 | 118 | 1.0 | 2.0 | 0.00 | 0.01 | 0.01 | 58 | 1013.5 |
| 20260507183534 | 67 | 118 | 0.0 | 2.0 | 0.00 | 0.01 | 0.01 | 57 | 1013.6 |
| 20260507183049 | 67 | 118 | 0.0 | 2.0 | 0.00 | 0.01 | 0.01 | 58 | 1013.5 |
| 20260507182531 | 67 | 118 | 1.0 | 2.0 | 0.00 | 0.01 | 0.01 | 58 | 1013.5 |
| 20260507182033 | 67 | 118 | 1.0 | 2.0 | 0.00 | 0.01 | 0.01 | 58 | 1013.6 |
| 20260507181546 | 68 | 118 | 1.0 | 2.0 | 0.00 | 0.01 | 0.01 | 58 | 1013.6 |
| 20260507181031 | 68 | 118 | 0.0 | 2.0 | 0.00 | 0.01 | 0.01 | 58 | 1013.6 |
| 20260507180530 | 68 | 118 | 0.0 | 4.0 | 0.00 | 0.01 | 0.01 | 57 | 1013.6 |
| 20260507180054 | 68 | 113 | 1.0 | 4.0 | 0.00 | 0.01 | 0.01 | 57 | 1013.4 |
| 20260507175531 | 68 | 105 | 2.0 | 4.0 | 0.00 | 0.01 | 0.01 | 57 | 1013.4 |
| 20260507175031 | 68 | 103 | 2.0 | 4.0 | 0.00 | 0.01 | 0.01 | 57 | 1013.4 |
| 20260507174603 | 68 | 114 | 2.0 | 3.0 | 0.00 | 0.01 | 0.01 | 57 | 1013.3 |
| 20260507174031 | 68 | 107 | 2.0 | 4.0 | 0.00 | 0.01 | 0.01 | 57 | 1013.2 |
| 20260507173531 | 69 | 121 | 2.0 | 4.0 | 0.00 | 0.01 | 0.01 | 56 | 1013.2 |
| 20260507173049 | 69 | 120 | 2.0 | 4.0 | 0.00 | 0.01 | 0.01 | 55 | 1013.3 |
| 20260507172531 | 70 | 138 | 1.0 | 3.0 | 0.00 | 0.01 | 0.01 | 50 | 1013.2 |
| 20260507172033 | 70 | 0 | 0.0 | 3.0 | 0.00 | 0.01 | 0.01 | 47 | 1013.2 |
| 20260507171601 | 70 | 191 | 1.0 | 4.0 | 0.00 | 0.01 | 0.01 | 47 | 1013.1 |
| 20260507171031 | 70 | 188 | 2.0 | 4.0 | 0.00 | 0.01 | 0.01 | 47 | 1013.2 |
| 20260507170532 | 70 | 178 | 1.0 | 4.0 | 0.00 | 0.01 | 0.01 | 48 | 1013.1 |
| 20260507170049 | 70 | 192 | 3.0 | 4.0 | 0.00 | 0.01 | 0.01 | 47 | 1013.0 |
| 20260507165531 | 70 | 11 | 2.0 | 4.0 | 0.00 | 0.01 | 0.01 | 46 | 1013.1 |
| 20260507165031 | 71 | 24 | 0.0 | 3.0 | 0.00 | 0.01 | 0.01 | 45 | 1013.1 |
| 20260507164550 | 71 | 18 | 1.0 | 5.0 | 0.00 | 0.01 | 0.01 | 45 | 1013.1 |
| 20260507164032 | 71 | 41 | 2.0 | 5.0 | 0.00 | 0.01 | 0.01 | 46 | 1013.1 |
| 20260507163531 | 71 | 34 | 3.0 | 4.0 | 0.00 | 0.01 | 0.01 | 47 | 1013.0 |
| 20260507163052 | 71 | 204 | 0.0 | 3.0 | 0.00 | 0.01 | 0.01 | 46 | 1013.0 |
| 20260507162532 | 71 | 34 | 0.0 | 3.0 | 0.00 | 0.01 | 0.01 | 46 | 1013.0 |
| 20260507162032 | 71 | 35 | 1.0 | 3.0 | 0.00 | 0.01 | 0.01 | 47 | 1013.0 |
| 20260507161548 | 71 | 200 | 0.0 | 3.0 | 0.00 | 0.01 | 0.01 | 47 | 1013.0 |
| 20260507161030 | 71 | 190 | 1.0 | 3.0 | 0.00 | 0.01 | 0.01 | 46 | 1013.0 |
| 20260507160531 | 71 | 5 | 1.0 | 3.0 | 0.00 | 0.01 | 0.01 | 47 | 1013.0 |
| 20260507160052 | 71 | 185 | 1.0 | 2.0 | 0.00 | 0.01 | 0.01 | 47 | 1013.0 |
| 20260507155531 | 71 | 143 | 0.0 | 1.0 | 0.00 | 0.01 | 0.01 | 47 | 1013.0 |
| 20260507155030 | 71 | 0 | 0.0 | 4.0 | 0.00 | 0.01 | 0.01 | 47 | 1013.2 |
| 20260507154550 | 71 | 0 | 0.0 | 4.0 | 0.00 | 0.01 | 0.01 | 47 | 1013.1 |
| 20260507154033 | 71 | 174 | 0.0 | 4.0 | 0.00 | 0.01 | 0.01 | 46 | 1013.1 |
| 20260507153531 | 71 | 139 | 1.0 | 5.0 | 0.00 | 0.01 | 0.01 | 47 | 1013.2 |
| 20260507153049 | 71 | 140 | 1.0 | 5.0 | 0.00 | 0.01 | 0.01 | 47 | 1013.2 |
| 20260507152533 | 71 | 157 | 2.0 | 5.0 | 0.00 | 0.01 | 0.01 | 47 | 1013.3 |
| 20260507152031 | 71 | 162 | 0.0 | 2.0 | 0.00 | 0.01 | 0.01 | 47 | 1013.2 |
| 20260507151548 | 71 | 164 | 0.0 | 2.0 | 0.00 | 0.01 | 0.01 | 47 | 1013.2 |
| 20260507151031 | 70 | 144 | 1.0 | 3.0 | 0.00 | 0.01 | 0.01 | 48 | 1013.2 |
| 20260507150531 | 70 | 116 | 0.0 | 3.0 | 0.00 | 0.01 | 0.01 | 49 | 1013.2 |
| 20260507150052 | 70 | 87 | 1.0 | 7.0 | 0.00 | 0.01 | 0.01 | 49 | 1013.3 |
| 20260507145531 | 70 | 156 | 2.0 | 7.0 | 0.00 | 0.01 | 0.01 | 49 | 1013.3 |
| 20260507145034 | 71 | 109 | 2.0 | 6.0 | 0.00 | 0.01 | 0.01 | 48 | 1013.3 |
| 20260507144552 | 71 | 97 | 2.0 | 4.0 | 0.00 | 0.01 | 0.01 | 48 | 1013.4 |
| 20260507144031 | 71 | 83 | 1.0 | 4.0 | 0.00 | 0.01 | 0.01 | 48 | 1013.4 |
| 20260507143530 | 71 | 0 | 1.0 | 4.0 | 0.00 | 0.01 | 0.01 | 48 | 1013.4 |
| 20260507143051 | 71 | 175 | 1.0 | 3.0 | 0.00 | 0.01 | 0.01 | 50 | 1013.4 |
| 20260507142531 | 70 | 194 | 0.0 | 3.0 | 0.00 | 0.01 | 0.01 | 49 | 1013.4 |
| 20260507142030 | 70 | 124 | 0.0 | 7.0 | 0.00 | 0.01 | 0.01 | 50 | 1013.5 |
| 20260507141548 | 70 | 156 | 3.0 | 7.0 | 0.00 | 0.01 | 0.01 | 50 | 1013.6 |
| 20260507141031 | 70 | 102 | 2.0 | 7.0 | 0.00 | 0.01 | 0.01 | 51 | 1013.7 |
| 20260507140531 | 70 | 121 | 2.0 | 7.0 | 0.00 | 0.01 | 0.01 | 50 | 1013.7 |
| 20260507135531 | 69 | 93 | 3.0 | 7.0 | 0.00 | 0.01 | 0.01 | 53 | 1013.8 |
| 20260507135031 | 70 | 80 | 3.0 | 7.0 | 0.00 | 0.01 | 0.01 | 52 | 1013.9 |
| 20260507134544 | 70 | 103 | 3.0 | 7.0 | 0.00 | 0.01 | 0.01 | 51 | 1014.0 |
| 20260507134031 | 70 | 90 | 2.0 | 4.0 | 0.00 | 0.01 | 0.01 | 52 | 1014.0 |
| 20260507133531 | 70 | 5 | 2.0 | 6.0 | 0.00 | 0.01 | 0.01 | 50 | 1014.0 |
| 20260507133058 | 70 | 0 | 2.0 | 6.0 | 0.00 | 0.01 | 0.01 | 51 | 1014.1 |
| 20260507132530 | 70 | 186 | 3.0 | 6.0 | 0.00 | 0.01 | 0.01 | 51 | 1014.2 |
| 20260507132034 | 69 | 12 | 1.0 | 6.0 | 0.00 | 0.01 | 0.01 | 55 | 1014.2 |
| 20260507131549 | 69 | 30 | 3.0 | 9.0 | 0.00 | 0.01 | 0.01 | 52 | 1014.3 |
| 20260507131031 | 69 | 36 | 4.0 | 9.0 | 0.00 | 0.01 | 0.01 | 52 | 1014.3 |
| 20260507130530 | 70 | 202 | 5.0 | 9.0 | 0.00 | 0.01 | 0.01 | 51 | 1014.4 |
| 20260507130103 | 69 | 27 | 4.0 | 9.0 | 0.00 | 0.01 | 0.01 | 56 | 1014.5 |
| 20260507125531 | 68 | 57 | 1.0 | 10.0 | 0.00 | 0.01 | 0.01 | 56 | 1014.4 |
| 20260507125031 | 68 | 201 | 6.0 | 11.0 | 0.00 | 0.01 | 0.01 | 55 | 1014.5 |
| 20260507124607 | 69 | 68 | 4.0 | 11.0 | 0.00 | 0.01 | 0.01 | 56 | 1014.6 |
| 20260507124034 | 68 | 5 | 7.0 | 11.0 | 0.00 | 0.01 | 0.01 | 57 | 1014.6 |
| 20260507123533 | 68 | 61 | 6.0 | 11.0 | 0.00 | 0.01 | 0.01 | 56 | 1014.5 |
| 20260507123045 | 68 | 196 | 4.0 | 14.0 | 0.00 | 0.01 | 0.01 | 57 | 1014.5 |
| 20260507122532 | 68 | 27 | 10.0 | 14.0 | 0.00 | 0.01 | 0.01 | 57 | 1014.5 |
| 20260507122032 | 68 | 23 | 7.0 | 14.0 | 0.00 | 0.01 | 0.01 | 58 | 1014.5 |
| 20260507121544 | 68 | 20 | 9.0 | 14.0 | 0.00 | 0.01 | 0.01 | 58 | 1014.5 |
| 20260507121032 | 68 | 15 | 5.0 | 11.0 | 0.00 | 0.01 | 0.01 | 58 | 1014.6 |
| 20260507120532 | 68 | 360 | 6.0 | 11.0 | 0.00 | 0.01 | 0.01 | 57 | 1014.6 |
| 20260507120041 | 67 | 19 | 3.0 | 10.0 | 0.00 | 0.01 | 0.01 | 56 | 1014.6 |
| 20260507115532 | 67 | 204 | 3.0 | 10.0 | 0.00 | 0.01 | 0.01 | 57 | 1014.6 |
| 20260507115033 | 67 | 186 | 6.0 | 10.0 | 0.00 | 0.01 | 0.01 | 57 | 1014.6 |
| 20260507114607 | 67 | 15 | 6.0 | 11.0 | 0.00 | 0.01 | 0.01 | 59 | 1014.6 |
| 20260507114034 | 67 | 188 | 7.0 | 11.0 | 0.00 | 0.01 | 0.01 | 58 | 1014.7 |
| 20260507113532 | 67 | 39 | 2.0 | 5.0 | 0.00 | 0.01 | 0.01 | 59 | 1014.7 |
| 20260507113052 | 67 | 38 | 1.0 | 6.0 | 0.00 | 0.01 | 0.01 | 59 | 1014.9 |
| 20260507112531 | 67 | 9 | 2.0 | 7.0 | 0.00 | 0.01 | 0.01 | 59 | 1014.8 |
| 20260507112032 | 67 | 23 | 2.0 | 7.0 | 0.00 | 0.01 | 0.01 | 59 | 1014.7 |
| 20260507111548 | 67 | 175 | 3.0 | 10.0 | 0.00 | 0.01 | 0.01 | 58 | 1014.8 |
| 20260507111031 | 67 | 191 | 5.0 | 10.0 | 0.00 | 0.01 | 0.01 | 58 | 1014.9 |
| 20260507110531 | 67 | 9 | 2.0 | 9.0 | 0.00 | 0.01 | 0.01 | 59 | 1014.8 |
| 20260507110048 | 67 | 47 | 3.0 | 9.0 | 0.00 | 0.01 | 0.01 | 59 | 1014.9 |
| 20260507105531 | 67 | 360 | 6.0 | 9.0 | 0.00 | 0.01 | 0.01 | 59 | 1014.9 |
| 20260507105032 | 68 | 179 | 3.0 | 8.0 | 0.00 | 0.01 | 0.01 | 58 | 1014.9 |
| 20260507104553 | 68 | 27 | 2.0 | 7.0 | 0.00 | 0.01 | 0.01 | 58 | 1014.9 |
| 20260507104032 | 68 | 165 | 0.0 | 7.0 | 0.00 | 0.01 | 0.01 | 57 | 1014.9 |
| 20260507103532 | 67 | 144 | 3.0 | 7.0 | 0.00 | 0.01 | 0.01 | 58 | 1015.1 |
| 20260507103049 | 67 | 180 | 2.0 | 7.0 | 0.00 | 0.01 | 0.01 | 59 | 1015.1 |
| 20260507102532 | 66 | 144 | 2.0 | 9.0 | 0.00 | 0.01 | 0.01 | 60 | 1015.1 |
| 20260507102032 | 66 | 158 | 5.0 | 9.0 | 0.00 | 0.01 | 0.01 | 60 | 1015.2 |
| 20260507101551 | 66 | 186 | 4.0 | 8.0 | 0.00 | 0.01 | 0.01 | 61 | 1015.2 |
| 20260507101034 | 66 | 194 | 3.0 | 8.0 | 0.00 | 0.01 | 0.01 | 63 | 1015.2 |
| 20260507100532 | 65 | 26 | 5.0 | 8.0 | 0.00 | 0.01 | 0.01 | 61 | 1015.3 |
| 20260507100049 | 65 | 79 | 1.0 | 6.0 | 0.00 | 0.01 | 0.01 | 62 | 1015.3 |
| 20260507095533 | 65 | 19 | 2.0 | 6.0 | 0.00 | 0.01 | 0.01 | 62 | 1015.2 |
| 20260507095032 | 65 | 86 | 3.0 | 6.0 | 0.00 | 0.01 | 0.01 | 61 | 1015.2 |
| 20260507094548 | 65 | 67 | 2.0 | 8.0 | 0.00 | 0.01 | 0.01 | 63 | 1015.2 |
| 20260507094031 | 64 | 22 | 3.0 | 8.0 | 0.00 | 0.01 | 0.01 | 63 | 1015.2 |
| 20260507093531 | 64 | 26 | 3.0 | 8.0 | 0.00 | 0.01 | 0.01 | 63 | 1015.3 |
| 20260507093046 | 64 | 201 | 3.0 | 8.0 | 0.00 | 0.01 | 0.01 | 63 | 1015.3 |
| 20260507092530 | 64 | 18 | 2.0 | 6.0 | 0.00 | 0.01 | 0.01 | 64 | 1015.2 |
| 20260507092031 | 64 | 13 | 2.0 | 6.0 | 0.00 | 0.01 | 0.01 | 64 | 1015.2 |
| 20260507091546 | 64 | 360 | 3.0 | 6.0 | 0.00 | 0.01 | 0.01 | 63 | 1015.3 |
| 20260507091030 | 64 | 202 | 3.0 | 5.0 | 0.00 | 0.01 | 0.01 | 64 | 1015.3 |
| 20260507090531 | 64 | 35 | 2.0 | 4.0 | 0.00 | 0.01 | 0.01 | 64 | 1015.3 |
| 20260507090041 | 64 | 11 | 1.0 | 5.0 | 0.00 | 0.01 | 0.01 | 64 | 1015.3 |
| 20260507085531 | 64 | 34 | 2.0 | 5.0 | 0.00 | 0.01 | 0.01 | 65 | 1015.3 |
| 20260507085031 | 64 | 5 | 2.0 | 4.0 | 0.00 | 0.01 | 0.01 | 66 | 1015.3 |
| 20260507084550 | 64 | 83 | 1.0 | 4.0 | 0.00 | 0.01 | 0.01 | 69 | 1015.2 |
| 20260507084031 | 63 | 98 | 1.0 | 4.0 | 0.00 | 0.01 | 0.01 | 70 | 1015.2 |
| 20260507083532 | 63 | 80 | 2.0 | 3.0 | 0.00 | 0.01 | 0.01 | 71 | 1015.3 |
| 20260507083049 | 62 | 150 | 0.0 | 3.0 | 0.00 | 0.01 | 0.01 | 73 | 1015.3 |
| 20260507082530 | 61 | 0 | 0.0 | 6.0 | 0.00 | 0.01 | 0.01 | 74 | 1015.4 |
| 20260507082030 | 61 | 116 | 1.0 | 7.0 | 0.00 | 0.01 | 0.01 | 75 | 1015.3 |
| 20260507081547 | 61 | 100 | 4.0 | 7.0 | 0.00 | 0.01 | 0.01 | 76 | 1015.3 |
| 20260507081032 | 60 | 78 | 2.0 | 7.0 | 0.00 | 0.01 | 0.01 | 79 | 1015.4 |
| 20260507080531 | 60 | 138 | 3.0 | 7.0 | 0.00 | 0.01 | 0.01 | 79 | 1015.5 |
| 20260507080045 | 59 | 105 | 3.0 | 9.0 | 0.00 | 0.01 | 0.01 | 79 | 1015.5 |
| 20260507075530 | 59 | 129 | 2.0 | 9.0 | 0.00 | 0.01 | 0.01 | 81 | 1015.4 |
| 20260507075033 | 58 | 105 | 6.0 | 9.0 | 0.00 | 0.01 | 0.01 | 81 | 1015.4 |
| 20260507074556 | 58 | 125 | 4.0 | 8.0 | 0.00 | 0.01 | 0.01 | 82 | 1015.4 |
| 20260507074030 | 58 | 111 | 2.0 | 8.0 | 0.00 | 0.01 | 0.01 | 83 | 1015.4 |
| 20260507073530 | 58 | 116 | 4.0 | 8.0 | 0.00 | 0.01 | 0.01 | 82 | 1015.4 |
| 20260507073048 | 57 | 117 | 3.0 | 7.0 | 0.00 | 0.01 | 0.01 | 81 | 1015.4 |
| 20260507072530 | 57 | 111 | 3.0 | 7.0 | 0.00 | 0.01 | 0.01 | 80 | 1015.3 |
| 20260507072031 | 57 | 90 | 2.0 | 4.0 | 0.00 | 0.01 | 0.01 | 80 | 1015.4 |
| 20260507071550 | 56 | 116 | 1.0 | 4.0 | 0.00 | 0.01 | 0.01 | 82 | 1015.4 |
| 20260507071030 | 56 | 90 | 2.0 | 4.0 | 0.00 | 0.01 | 0.01 | 83 | 1015.3 |
| 20260507070533 | 56 | 127 | 3.0 | 4.0 | 0.00 | 0.01 | 0.01 | 84 | 1015.4 |
| 20260507070106 | 55 | 112 | 3.0 | 4.0 | 0.00 | 0.01 | 0.01 | 85 | 1015.2 |
| 20260507065529 | 54 | 109 | 1.0 | 4.0 | 0.00 | 0.00 | 0.00 | 85 | 1015.1 |
| 20260507065030 | 54 | 118 | 2.0 | 5.0 | 0.00 | 0.00 | 0.00 | 86 | 1015.3 |
| 20260507064550 | 54 | 128 | 2.0 | 5.0 | 0.00 | 0.00 | 0.00 | 86 | 1015.2 |
| 20260507064030 | 54 | 138 | 2.0 | 4.0 | 0.00 | 0.00 | 0.00 | 86 | 1015.2 |
| 20260507063531 | 54 | 154 | 1.0 | 5.0 | 0.00 | 0.00 | 0.00 | 86 | 1015.2 |
| 20260507063056 | 54 | 140 | 2.0 | 8.0 | 0.00 | 0.00 | 0.00 | 85 | 1015.2 |
| 20260507062531 | 54 | 129 | 3.0 | 8.0 | 0.00 | 0.00 | 0.00 | 85 | 1015.2 |
| 20260507062031 | 54 | 145 | 2.0 | 6.0 | 0.00 | 0.00 | 0.00 | 86 | 1015.2 |
| 20260507061549 | 54 | 161 | 2.0 | 5.0 | 0.00 | 0.00 | 0.00 | 86 | 1015.3 |
| 20260507061032 | 54 | 156 | 1.0 | 3.0 | 0.00 | 0.00 | 0.00 | 86 | 1015.3 |
| 20260507060543 | 54 | 132 | 1.0 | 4.0 | 0.00 | 0.00 | 0.00 | 86 | 1015.2 |
| 20260507060050 | 54 | 136 | 2.0 | 4.0 | 0.00 | 0.00 | 0.00 | 87 | 1015.2 |
| 20260507055531 | 55 | 144 | 2.0 | 5.0 | 0.00 | 0.00 | 0.00 | 87 | 1015.2 |
| 20260507055032 | 55 | 137 | 1.0 | 5.0 | 0.00 | 0.00 | 0.00 | 88 | 1015.2 |
| 20260507054545 | 55 | 165 | 2.0 | 5.0 | 0.00 | 0.00 | 0.00 | 88 | 1015.1 |
| 20260507054031 | 55 | 169 | 2.0 | 5.0 | 0.00 | 0.00 | 0.00 | 88 | 1015.1 |
| 20260507053531 | 55 | 168 | 2.0 | 5.0 | 0.00 | 0.00 | 0.00 | 88 | 1015.1 |
| 20260507053046 | 56 | 158 | 2.0 | 5.0 | 0.00 | 0.00 | 0.00 | 88 | 1015.1 |
| 20260507052532 | 56 | 159 | 1.0 | 3.0 | 0.00 | 0.00 | 0.00 | 88 | 1015.1 |
| 20260507052032 | 55 | 0 | 1.0 | 3.0 | 0.00 | 0.00 | 0.00 | 88 | 1014.9 |
| 20260507051551 | 55 | 140 | 1.0 | 3.0 | 0.00 | 0.00 | 0.00 | 88 | 1014.9 |
| 20260507051031 | 55 | 142 | 1.0 | 2.0 | 0.00 | 0.00 | 0.00 | 88 | 1014.9 |
| 20260507050533 | 55 | 0 | 0.0 | 2.0 | 0.00 | 0.00 | 0.00 | 88 | 1014.8 |
| 20260507050048 | 55 | 182 | 0.0 | 2.0 | 0.00 | 0.00 | 0.00 | 88 | 1014.9 |
| 20260507045532 | 55 | 0 | 0.0 | 2.0 | 0.00 | 0.00 | 0.00 | 88 | 1014.8 |
| 20260507045032 | 55 | 22 | 1.0 | 2.0 | 0.00 | 0.00 | 0.00 | 88 | 1014.7 |
| 20260507044552 | 55 | 23 | 0.0 | 2.0 | 0.00 | 0.00 | 0.00 | 88 | 1014.6 |
| 20260507044032 | 55 | 0 | 0.0 | 2.0 | 0.00 | 0.00 | 0.00 | 88 | 1014.6 |
| 20260507043531 | 55 | 0 | 0.0 | 2.0 | 0.00 | 0.00 | 0.00 | 88 | 1014.6 |
| 20260507043049 | 55 | 12 | 0.0 | 2.0 | 0.00 | 0.00 | 0.00 | 88 | 1014.7 |
| 20260507042531 | 55 | 0 | 0.0 | 2.0 | 0.00 | 0.00 | 0.00 | 88 | 1014.6 |
| 20260507042033 | 55 | 0 | 0.0 | 3.0 | 0.00 | 0.00 | 0.00 | 88 | 1014.6 |
| 20260507041549 | 55 | 0 | 0.0 | 3.0 | 0.00 | 0.00 | 0.00 | 88 | 1014.5 |
| 20260507041033 | 55 | 12 | 1.0 | 3.0 | 0.00 | 0.00 | 0.00 | 87 | 1014.3 |
| 20260507040533 | 55 | 16 | 2.0 | 3.0 | 0.00 | 0.00 | 0.00 | 87 | 1014.2 |
| 20260507040049 | 55 | 49 | 0.0 | 3.0 | 0.00 | 0.00 | 0.00 | 87 | 1014.2 |
| 20260507035531 | 55 | 38 | 1.0 | 4.0 | 0.00 | 0.00 | 0.00 | 87 | 1014.2 |
| 20260507035032 | 55 | 11 | 1.0 | 4.0 | 0.00 | 0.00 | 0.00 | 87 | 1014.1 |
| 20260507034547 | 55 | 5 | 2.0 | 4.0 | 0.00 | 0.00 | 0.00 | 87 | 1014.1 |
| 20260507034031 | 56 | 25 | 1.0 | 4.0 | 0.00 | 0.00 | 0.00 | 87 | 1014.2 |
| 20260507033533 | 56 | 5 | 1.0 | 6.0 | 0.00 | 0.00 | 0.00 | 87 | 1014.1 |
| 20260507033048 | 56 | 198 | 3.0 | 6.0 | 0.00 | 0.00 | 0.00 | 87 | 1014.1 |
| 20260507032534 | 55 | 201 | 4.0 | 8.0 | 0.00 | 0.00 | 0.00 | 87 | 1014.1 |
| 20260507032032 | 55 | 360 | 4.0 | 8.0 | 0.00 | 0.00 | 0.00 | 87 | 1014.1 |
| 20260507031547 | 55 | 205 | 4.0 | 8.0 | 0.00 | 0.00 | 0.00 | 88 | 1014.0 |
| 20260507031032 | 56 | 205 | 6.0 | 8.0 | 0.00 | 0.00 | 0.00 | 88 | 1014.1 |
| 20260507030532 | 57 | 190 | 4.0 | 6.0 | 0.00 | 0.00 | 0.00 | 89 | 1014.1 |
| 20260507030050 | 57 | 205 | 1.0 | 3.0 | 0.00 | 0.00 | 0.00 | 89 | 1014.0 |
| 20260507025530 | 57 | 44 | 0.0 | 2.0 | 0.00 | 0.01 | 0.00 | 89 | 1013.9 |
| 20260507025032 | 57 | 0 | 1.0 | 8.0 | 0.00 | 0.01 | 0.00 | 89 | 1013.9 |
| 20260507024549 | 57 | 0 | 1.0 | 8.0 | 0.00 | 0.01 | 0.00 | 89 | 1013.9 |
| 20260507024032 | 57 | 173 | 4.0 | 8.0 | 0.00 | 0.00 | 0.00 | 89 | 1013.9 |